sat.trackr.live / text

‹ back to catalog

STARLINK-36876

NORAD 67902 · 2026-035Z

PAYLOAD ACTIVE UNKNOWN

§ Identity

Operator
Country
US
Launch date
2026-02-21
Launch site
AFWTR
Launch vehicle
Mass (kg)
RCS (m²)

Purposes: comms

External: N2YO · Heavens-Above · Gunter

§ Orbital elements

Epoch: 2026-09-19T13:44:40.201728Z

Period
93.91 min
Inclination
97.2855°
Eccentricity
0.0001678
Mean motion
15.33443914 rev/d
Perigee alt
464.4 km
Apogee alt
466.7 km
Semi-major
6,843.7 km
B*
6.7340e-4
RAAN
194.4800°
Arg perigee
92.9174°
Mean anomaly
267.2260°
Rev number
3,370

§ Raw data

STARLINK-368761 67902U 26035Z   26262.57268752  .00021727  00000+0  67340-3 0  99912 67902  97.2855 194.4800 0001678  92.9174 267.2260 15.33443914 33707

JSON: /api/v1/satellites/67902 · /tle

For live sub-satellite position, see the globe view (requires WebGL).

§ Visibility from observer

Set your observer location to see the next 7 days of passes ≥ 10°. The values pass through the URL so the page stays shareable.

No JS? Fill the form by hand. The geolocation button needs JavaScript.